Wetterdaten: Dienstag, 08.09.2015
Datum Zeit Temp. A. Feuchte A. Luftdruck Regen Wind Richtung Richtung Sonnenschein ET UV Solar Taupunkt Windchill Windben Empfang
08.09.2015 00:01 10,0 C 93 % 1025,5 hPa 0,3 l/m 0,4 km/h (0 Bft) W-NW 284 0 min 0,000 mm 0,0 UV-I 0 W/m 8,9 C 10,0 C 4,0 km/h (1 Bft) 0,00 %
08.09.2015 00:06 10,0 C 93 % 1025,5 hPa 0,6 l/m 0,0 km/h (0 Bft) N 0 0 min 0,000 mm 0,0 UV-I 0 W/m 8,9 C 10,0 C 0,0 km/h (0 Bft) 0,00 %
08.09.2015 00:11 10,0 C 94 % 1025,5 hPa 0,3 l/m 0,0 km/h (0 Bft) W-SW 256 0 min 0,000 mm 0,0 UV-I 0 W/m 9,1 C 10,0 C 0,0 km/h (0 Bft) 0,00 %
08.09.2015 00:16 9,9 C 95 % 1025,4 hPa 0,3 l/m 0,0 km/h (0 Bft) NO 36 0 min 0,000 mm 0,0 UV-I 0 W/m 9,1 C 9,9 C 0,0 km/h (0 Bft) 0,00 %
08.09.2015 00:21 9,9 C 96 % 1025,4 hPa 0,3 l/m 0,0 km/h (0 Bft) W-NW 298 0 min 0,000 mm 0,0 UV-I 0 W/m 9,3 C 9,9 C 0,0 km/h (0 Bft) 0,00 %
08.09.2015 00:26 9,9 C 96 % 1025,3 hPa 0,0 l/m 0,4 km/h (0 Bft) O 89 0 min 0,000 mm 0,0 UV-I 0 W/m 9,3 C 9,9 C 4,0 km/h (1 Bft) 0,00 %
08.09.2015 00:31 9,9 C 96 % 1025,4 hPa 0,0 l/m 0,0 km/h (0 Bft) NO 41 0 min 0,000 mm 0,0 UV-I 0 W/m 9,3 C 9,9 C 0,0 km/h (0 Bft) 0,00 %
08.09.2015 00:36 9,9 C 97 % 1025,2 hPa 0,0 l/m 0,0 km/h (0 Bft) N-NW 336 0 min 0,000 mm 0,0 UV-I 0 W/m 9,4 C 9,9 C 0,0 km/h (0 Bft) 0,00 %
08.09.2015 00:41 9,9 C 97 % 1025,4 hPa 0,3 l/m 0,0 km/h (0 Bft) N 359 0 min 0,000 mm 0,0 UV-I 0 W/m 9,4 C 9,9 C 0,0 km/h (0 Bft) 0,00 %
08.09.2015 00:46 9,8 C 97 % 1025,4 hPa 0,0 l/m 0,0 km/h (0 Bft) O-NO 65 0 min 0,000 mm 0,0 UV-I 0 W/m 9,3 C 9,8 C 0,0 km/h (0 Bft) 0,00 %
08.09.2015 00:51 9,8 C 97 % 1025,3 hPa 0,0 l/m 0,0 km/h (0 Bft) N-NO 19 0 min 0,000 mm 0,0 UV-I 0 W/m 9,3 C 9,8 C 0,0 km/h (0 Bft) 0,00 %
08.09.2015 00:56 9,8 C 98 % 1025,4 hPa 0,3 l/m 0,0 km/h (0 Bft) NO 38 0 min 0,000 mm 0,0 UV-I 0 W/m 9,5 C 9,8 C 0,0 km/h (0 Bft) 0,00 %
08.09.2015 01:01 9,8 C 98 % 1025,3 hPa 0,0 l/m 0,0 km/h (0 Bft) N-NO 29 0 min 0,000 mm 0,0 UV-I 0 W/m 9,5 C 9,8 C 0,0 km/h (0 Bft) 0,00 %
08.09.2015 01:06 9,8 C 98 % 1025,4 hPa 0,0 l/m 0,4 km/h (0 Bft) N-NW 343 0 min 0,000 mm 0,0 UV-I 0 W/m 9,5 C 9,8 C 4,0 km/h (1 Bft) 0,00 %
08.09.2015 01:11 9,8 C 98 % 1025,3 hPa 0,0 l/m 2,9 km/h (1 Bft) W-SW 247 0 min 0,000 mm 0,0 UV-I 0 W/m 9,5 C 9,8 C 4,0 km/h (1 Bft) 0,00 %
08.09.2015 01:16 9,8 C 99 % 1025,4 hPa 0,0 l/m 0,0 km/h (0 Bft) N 351 0 min 0,000 mm 0,0 UV-I 0 W/m 9,7 C 9,8 C 0,0 km/h (0 Bft) 0,00 %
08.09.2015 01:21 9,8 C 99 % 1025,2 hPa 0,0 l/m 1,8 km/h (1 Bft) W-SW 255 0 min 0,000 mm 0,0 UV-I 0 W/m 9,7 C 9,8 C 4,0 km/h (1 Bft) 0,00 %
08.09.2015 01:26 9,7 C 99 % 1025,2 hPa 0,0 l/m 0,0 km/h (0 Bft) N 355 0 min 0,000 mm 0,0 UV-I 0 W/m 9,6 C 9,7 C 0,0 km/h (0 Bft) 0,00 %
08.09.2015 01:31 9,7 C 99 % 1025,2 hPa 0,0 l/m 0,0 km/h (0 Bft) NO 41 0 min 0,000 mm 0,0 UV-I 0 W/m 9,6 C 9,7 C 0,0 km/h (0 Bft) 0,00 %
08.09.2015 01:36 9,7 C 99 % 1025,2 hPa 0,0 l/m 0,0 km/h (0 Bft) NO 39 0 min 0,000 mm 0,0 UV-I 0 W/m 9,6 C 9,7 C 0,0 km/h (0 Bft) 0,00 %
08.09.2015 01:41 9,7 C 99 % 1025,3 hPa 0,0 l/m 0,0 km/h (0 Bft) NO 35 0 min 0,000 mm 0,0 UV-I 0 W/m 9,6 C 9,7 C 0,0 km/h (0 Bft) 0,00 %
08.09.2015 01:46 9,7 C 99 % 1025,2 hPa 0,0 l/m 0,0 km/h (0 Bft) N 354 0 min 0,000 mm 0,0 UV-I 0 W/m 9,6 C 9,7 C 0,0 km/h (0 Bft) 0,00 %
08.09.2015 01:51 9,7 C 99 % 1025,1 hPa 0,0 l/m 0,0 km/h (0 Bft) NO 46 0 min 0,000 mm 0,0 UV-I 0 W/m 9,6 C 9,7 C 0,0 km/h (0 Bft) 0,00 %
08.09.2015 01:56 9,7 C 99 % 1025,2 hPa 0,0 l/m 0,0 km/h (0 Bft) O-NO 58 0 min 0,000 mm 0,0 UV-I 0 W/m 9,6 C 9,7 C 0,0 km/h (0 Bft) 0,00 %
08.09.2015 02:01 9,7 C 99 % 1025,3 hPa 0,0 l/m 0,0 km/h (0 Bft) NO 40 0 min 0,000 mm 0,0 UV-I 0 W/m 9,6 C 9,7 C 0,0 km/h (0 Bft) 0,00 %
08.09.2015 02:06 9,7 C 99 % 1025,1 hPa 0,0 l/m 0,0 km/h (0 Bft) NO 39 0 min 0,000 mm 0,0 UV-I 0 W/m 9,6 C 9,7 C 0,0 km/h (0 Bft) 0,00 %
08.09.2015 02:11 9,7 C 99 % 1025,1 hPa 0,0 l/m 0,0 km/h (0 Bft) NW 305 0 min 0,000 mm 0,0 UV-I 0 W/m 9,6 C 9,7 C 0,0 km/h (0 Bft) 0,00 %
08.09.2015 02:16 9,7 C 99 % 1025,2 hPa 0,0 l/m 0,4 km/h (0 Bft) N 351 0 min 0,000 mm 0,0 UV-I 0 W/m 9,6 C 9,7 C 4,0 km/h (1 Bft) 0,00 %
08.09.2015 02:21 9,7 C 99 % 1025,1 hPa 0,0 l/m 0,0 km/h (0 Bft) NO 41 0 min 0,000 mm 0,0 UV-I 0 W/m 9,6 C 9,7 C 0,0 km/h (0 Bft) 0,00 %
08.09.2015 02:26 9,7 C 99 % 1025,1 hPa 0,0 l/m 0,0 km/h (0 Bft) NO 39 0 min 0,000 mm 0,0 UV-I 0 W/m 9,6 C 9,7 C 0,0 km/h (0 Bft) 0,00 %
08.09.2015 02:31 9,7 C 99 % 1025,1 hPa 0,0 l/m 0,4 km/h (0 Bft) N-NO 14 0 min 0,000 mm 0,0 UV-I 0 W/m 9,6 C 9,7 C 4,0 km/h (1 Bft) 0,00 %
08.09.2015 02:36 9,7 C 99 % 1025,0 hPa 0,0 l/m 0,0 km/h (0 Bft) N-NO 28 0 min 0,000 mm 0,0 UV-I 0 W/m 9,6 C 9,7 C 0,0 km/h (0 Bft) 0,00 %
08.09.2015 02:41 9,7 C 99 % 1025,1 hPa 0,0 l/m 0,0 km/h (0 Bft) NO 55 0 min 0,000 mm 0,0 UV-I 0 W/m 9,6 C 9,7 C 0,0 km/h (0 Bft) 0,00 %
08.09.2015 02:46 9,7 C 99 % 1025,1 hPa 0,0 l/m 0,0 km/h (0 Bft) N 356 0 min 0,000 mm 0,0 UV-I 0 W/m 9,6 C 9,7 C 0,0 km/h (0 Bft) 0,00 %
08.09.2015 02:51 9,7 C 99 % 1025,2 hPa 0,0 l/m 0,0 km/h (0 Bft) NO 36 0 min 0,000 mm 0,0 UV-I 0 W/m 9,6 C 9,7 C 0,0 km/h (0 Bft) 0,00 %
08.09.2015 02:56 9,7 C 99 % 1025,1 hPa 0,0 l/m 0,0 km/h (0 Bft) W-SW 255 0 min 0,000 mm 0,0 UV-I 0 W/m 9,6 C 9,7 C 0,0 km/h (0 Bft) 0,00 %
08.09.2015 03:01 9,7 C 99 % 1025,3 hPa 0,0 l/m 0,0 km/h (0 Bft) N-NO 25 0 min 0,000 mm 0,0 UV-I 0 W/m 9,6 C 9,7 C 0,0 km/h (0 Bft) 0,00 %
08.09.2015 03:06 9,7 C 99 % 1025,2 hPa 0,0 l/m 0,4 km/h (0 Bft) SW 230 0 min 0,000 mm 0,0 UV-I 0 W/m 9,6 C 9,7 C 4,0 km/h (1 Bft) 0,00 %
08.09.2015 03:11 9,7 C 99 % 1025,1 hPa 0,0 l/m 1,4 km/h (1 Bft) W-SW 255 0 min 0,000 mm 0,0 UV-I 0 W/m 9,6 C 9,7 C 4,0 km/h (1 Bft) 0,00 %
08.09.2015 03:16 9,7 C 99 % 1025,3 hPa 0,0 l/m 0,0 km/h (0 Bft) NO 41 0 min 0,000 mm 0,0 UV-I 0 W/m 9,6 C 9,7 C 0,0 km/h (0 Bft) 0,00 %
08.09.2015 03:21 9,7 C 99 % 1025,2 hPa 0,0 l/m 0,0 km/h (0 Bft) NO 42 0 min 0,000 mm 0,0 UV-I 0 W/m 9,6 C 9,7 C 0,0 km/h (0 Bft) 0,00 %
08.09.2015 03:26 9,7 C 99 % 1025,1 hPa 0,0 l/m 0,0 km/h (0 Bft) NO 45 0 min 0,000 mm 0,0 UV-I 0 W/m 9,6 C 9,7 C 0,0 km/h (0 Bft) 0,00 %
08.09.2015 03:31 9,7 C 99 % 1025,0 hPa 0,0 l/m 1,8 km/h (1 Bft) W-SW 256 0 min 0,000 mm 0,0 UV-I 0 W/m 9,6 C 9,7 C 4,0 km/h (1 Bft) 0,00 %
08.09.2015 03:36 9,7 C 99 % 1025,1 hPa 0,0 l/m 0,4 km/h (0 Bft) N-NW 330 0 min 0,000 mm 0,0 UV-I 0 W/m 9,6 C 9,7 C 4,0 km/h (1 Bft) 0,00 %
08.09.2015 03:41 9,6 C 99 % 1025,2 hPa 0,0 l/m 1,4 km/h (1 Bft) N-NW 327 0 min 0,000 mm 0,0 UV-I 0 W/m 9,5 C 9,6 C 4,0 km/h (1 Bft) 0,00 %
08.09.2015 03:46 9,6 C 99 % 1025,3 hPa 0,0 l/m 0,0 km/h (0 Bft) N-NO 25 0 min 0,000 mm 0,0 UV-I 0 W/m 9,5 C 9,6 C 0,0 km/h (0 Bft) 0,00 %
08.09.2015 03:51 9,6 C 99 % 1025,2 hPa 0,0 l/m 0,0 km/h (0 Bft) N 356 0 min 0,000 mm 0,0 UV-I 0 W/m 9,5 C 9,6 C 0,0 km/h (0 Bft) 0,00 %
08.09.2015 03:56 9,6 C 99 % 1025,3 hPa 0,0 l/m 0,0 km/h (0 Bft) N 11 0 min 0,000 mm 0,0 UV-I 0 W/m 9,5 C 9,6 C 0,0 km/h (0 Bft) 0,00 %
08.09.2015 04:01 9,6 C 99 % 1025,2 hPa 0,0 l/m 0,0 km/h (0 Bft) N 351 0 min 0,000 mm 0,0 UV-I 0 W/m 9,5 C 9,6 C 0,0 km/h (0 Bft) 0,00 %
08.09.2015 04:06 9,6 C 99 % 1025,0 hPa 0,0 l/m 0,0 km/h (0 Bft) N 350 0 min 0,000 mm 0,0 UV-I 0 W/m 9,5 C 9,6 C 0,0 km/h (0 Bft) 0,00 %
08.09.2015 04:11 9,6 C 99 % 1025,1 hPa 0,0 l/m 0,0 km/h (0 Bft) NW 307 0 min 0,000 mm 0,0 UV-I 0 W/m 9,5 C 9,6 C 0,0 km/h (0 Bft) 0,00 %
08.09.2015 04:16 9,6 C 99 % 1025,2 hPa 0,0 l/m 1,4 km/h (1 Bft) W-SW 256 0 min 0,000 mm 0,0 UV-I 0 W/m 9,5 C 9,6 C 4,0 km/h (1 Bft) 0,00 %
08.09.2015 04:21 9,6 C 99 % 1025,2 hPa 0,0 l/m 0,0 km/h (0 Bft) W-NW 292 0 min 0,000 mm 0,0 UV-I 0 W/m 9,5 C 9,6 C 0,0 km/h (0 Bft) 0,00 %
08.09.2015 04:26 9,6 C 99 % 1025,3 hPa 0,0 l/m 0,0 km/h (0 Bft) W-SW 256 0 min 0,000 mm 0,0 UV-I 0 W/m 9,5 C 9,6 C 0,0 km/h (0 Bft) 0,00 %
08.09.2015 04:31 9,6 C 99 % 1025,3 hPa 0,0 l/m 0,7 km/h (0 Bft) W-SW 256 0 min 0,000 mm 0,0 UV-I 0 W/m 9,5 C 9,6 C 4,0 km/h (1 Bft) 0,00 %
08.09.2015 04:36 9,6 C 99 % 1025,2 hPa 0,0 l/m 0,0 km/h (0 Bft) NO 48 0 min 0,000 mm 0,0 UV-I 0 W/m 9,5 C 9,6 C 0,0 km/h (0 Bft) 0,00 %
08.09.2015 04:41 9,6 C 99 % 1025,2 hPa 0,0 l/m 0,0 km/h (0 Bft) NO 43 0 min 0,000 mm 0,0 UV-I 0 W/m 9,5 C 9,6 C 0,0 km/h (0 Bft) 0,00 %
08.09.2015 04:46 9,5 C 99 % 1025,1 hPa 0,0 l/m 0,0 km/h (0 Bft) NO 40 0 min 0,000 mm 0,0 UV-I 0 W/m 9,4 C 9,5 C 0,0 km/h (0 Bft) 0,00 %
08.09.2015 04:51 9,5 C 99 % 1025,3 hPa 0,0 l/m 0,0 km/h (0 Bft) O-NO 60 0 min 0,000 mm 0,0 UV-I 0 W/m 9,4 C 9,5 C 0,0 km/h (0 Bft) 0,00 %
08.09.2015 04:56 9,5 C 99 % 1025,2 hPa 0,0 l/m 0,0 km/h (0 Bft) N 354 0 min 0,000 mm 0,0 UV-I 0 W/m 9,4 C 9,5 C 0,0 km/h (0 Bft) 0,00 %
08.09.2015 05:01 9,5 C 99 % 1025,2 hPa 0,0 l/m 0,0 km/h (0 Bft) NO 45 0 min 0,000 mm 0,0 UV-I 0 W/m 9,4 C 9,5 C 0,0 km/h (0 Bft) 0,00 %
08.09.2015 05:06 9,5 C 99 % 1025,2 hPa 0,0 l/m 0,0 km/h (0 Bft) W-NW 293 0 min 0,000 mm 0,0 UV-I 0 W/m 9,4 C 9,5 C 0,0 km/h (0 Bft) 0,00 %
08.09.2015 05:11 9,5 C 99 % 1024,9 hPa 0,0 l/m 0,0 km/h (0 Bft) N-NO 25 0 min 0,000 mm 0,0 UV-I 0 W/m 9,4 C 9,5 C 0,0 km/h (0 Bft) 0,00 %
08.09.2015 05:16 9,5 C 99 % 1025,0 hPa 0,0 l/m 0,0 km/h (0 Bft) O-NO 77 0 min 0,000 mm 0,0 UV-I 0 W/m 9,4 C 9,5 C 0,0 km/h (0 Bft) 0,00 %
08.09.2015 05:21 9,5 C 99 % 1025,0 hPa 0,0 l/m 0,0 km/h (0 Bft) N-NW 331 0 min 0,000 mm 0,0 UV-I 0 W/m 9,4 C 9,5 C 0,0 km/h (0 Bft) 0,00 %
08.09.2015 05:26 9,5 C 99 % 1025,1 hPa 0,0 l/m 0,0 km/h (0 Bft) N 352 0 min 0,000 mm 0,0 UV-I 0 W/m 9,4 C 9,5 C 0,0 km/h (0 Bft) 0,00 %
08.09.2015 05:31 9,5 C 99 % 1025,1 hPa 0,0 l/m 0,0 km/h (0 Bft) NO 45 0 min 0,000 mm 0,0 UV-I 0 W/m 9,4 C 9,5 C 0,0 km/h (0 Bft) 0,00 %
08.09.2015 05:36 9,5 C 99 % 1024,9 hPa 0,0 l/m 0,0 km/h (0 Bft) NW 324 0 min 0,000 mm 0,0 UV-I 0 W/m 9,4 C 9,5 C 0,0 km/h (0 Bft) 0,00 %
08.09.2015 05:41 9,5 C 99 % 1025,1 hPa 0,0 l/m 0,0 km/h (0 Bft) N-NO 17 0 min 0,000 mm 0,0 UV-I 0 W/m 9,4 C 9,5 C 0,0 km/h (0 Bft) 0,00 %
08.09.2015 05:46 9,5 C 99 % 1024,8 hPa 0,0 l/m 0,0 km/h (0 Bft) N-NO 33 0 min 0,000 mm 0,0 UV-I 0 W/m 9,4 C 9,5 C 0,0 km/h (0 Bft) 0,00 %
08.09.2015 05:51 9,5 C 99 % 1025,0 hPa 0,0 l/m 0,0 km/h (0 Bft) NO 44 0 min 0,000 mm 0,0 UV-I 0 W/m 9,4 C 9,5 C 0,0 km/h (0 Bft) 0,00 %
08.09.2015 05:56 9,5 C 99 % 1024,9 hPa 0,0 l/m 0,0 km/h (0 Bft) N 356 0 min 0,000 mm 0,0 UV-I 0 W/m 9,4 C 9,5 C 0,0 km/h (0 Bft) 0,00 %
08.09.2015 06:01 9,5 C 99 % 1025,0 hPa 0,0 l/m 0,0 km/h (0 Bft) N 356 0 min 0,000 mm 0,0 UV-I 0 W/m 9,4 C 9,5 C 0,0 km/h (0 Bft) 0,00 %
08.09.2015 06:06 9,5 C 99 % 1025,0 hPa 0,0 l/m 0,0 km/h (0 Bft) NO 45 0 min 0,000 mm 0,0 UV-I 0 W/m 9,4 C 9,5 C 0,0 km/h (0 Bft) 0,00 %
08.09.2015 06:11 9,5 C 99 % 1024,9 hPa 0,0 l/m 0,0 km/h (0 Bft) N-NO 18 0 min 0,000 mm 0,0 UV-I 0 W/m 9,4 C 9,5 C 0,0 km/h (0 Bft) 0,00 %
08.09.2015 06:16 9,5 C 99 % 1025,0 hPa 0,0 l/m 0,0 km/h (0 Bft) NO 52 0 min 0,000 mm 0,0 UV-I 0 W/m 9,4 C 9,5 C 0,0 km/h (0 Bft) 0,00 %
08.09.2015 06:21 9,5 C 99 % 1025,0 hPa 0,0 l/m 0,0 km/h (0 Bft) NO 42 0 min 0,000 mm 0,0 UV-I 0 W/m 9,4 C 9,5 C 0,0 km/h (0 Bft) 0,00 %
08.09.2015 06:26 9,5 C 99 % 1025,0 hPa 0,0 l/m 0,0 km/h (0 Bft) NO 52 0 min 0,000 mm 0,0 UV-I 0 W/m 9,4 C 9,5 C 0,0 km/h (0 Bft) 0,00 %
08.09.2015 06:31 9,5 C 99 % 1024,9 hPa 0,0 l/m 0,7 km/h (0 Bft) W-NW 300 0 min 0,000 mm 0,0 UV-I 0 W/m 9,4 C 9,5 C 4,0 km/h (1 Bft) 0,00 %
08.09.2015 06:36 9,5 C 99 % 1025,1 hPa 0,0 l/m 0,4 km/h (0 Bft) SW 236 0 min 0,000 mm 0,0 UV-I 0 W/m 9,4 C 9,5 C 4,0 km/h (1 Bft) 0,00 %
08.09.2015 06:41 9,5 C 99 % 1025,1 hPa 0,0 l/m 0,0 km/h (0 Bft) NO 48 0 min 0,000 mm 0,0 UV-I 0 W/m 9,4 C 9,5 C 0,0 km/h (0 Bft) 0,00 %
08.09.2015 06:46 9,5 C 99 % 1025,0 hPa 0,0 l/m 0,0 km/h (0 Bft) NO 47 0 min 0,000 mm 0,0 UV-I 4 W/m 9,4 C 9,5 C 0,0 km/h (0 Bft) 0,00 %
08.09.2015 06:51 9,5 C 99 % 1024,9 hPa 0,0 l/m 0,0 km/h (0 Bft) NO 46 0 min 0,000 mm 0,0 UV-I 9 W/m 9,4 C 9,5 C 0,0 km/h (0 Bft) 0,00 %
08.09.2015 06:56 9,5 C 99 % 1024,8 hPa 0,0 l/m 0,0 km/h (0 Bft) NO 47 0 min 0,000 mm 0,0 UV-I 18 W/m 9,4 C 9,5 C 0,0 km/h (0 Bft) 0,00 %
08.09.2015 07:01 9,5 C 99 % 1024,7 hPa 0,0 l/m 0,0 km/h (0 Bft) N-NO 21 0 min 0,000 mm 0,0 UV-I 21 W/m 9,4 C 9,5 C 0,0 km/h (0 Bft) 0,00 %
08.09.2015 07:06 9,5 C 99 % 1024,7 hPa 0,0 l/m 0,0 km/h (0 Bft) W-NW 297 0 min 0,000 mm 0,0 UV-I 25 W/m 9,4 C 9,5 C 0,0 km/h (0 Bft) 0,00 %
08.09.2015 07:11 9,6 C 99 % 1024,7 hPa 0,0 l/m 0,0 km/h (0 Bft) NO 37 0 min 0,000 mm 0,0 UV-I 34 W/m 9,5 C 9,6 C 0,0 km/h (0 Bft) 0,00 %
08.09.2015 07:16 9,6 C 99 % 1024,6 hPa 0,0 l/m 0,0 km/h (0 Bft) N-NO 13 0 min 0,000 mm 0,0 UV-I 44 W/m 9,5 C 9,6 C 0,0 km/h (0 Bft) 0,00 %
08.09.2015 07:21 9,6 C 99 % 1024,6 hPa 0,0 l/m 0,0 km/h (0 Bft) NO 39 0 min 0,000 mm 0,0 UV-I 54 W/m 9,5 C 9,6 C 0,0 km/h (0 Bft) 0,00 %
08.09.2015 07:27 9,7 C 99 % 1024,4 hPa 0,0 l/m 0,0 km/h (0 Bft) N-NO 31 0 min 0,000 mm 0,0 UV-I 59 W/m 9,6 C 9,7 C 0,0 km/h (0 Bft) 0,00 %
08.09.2015 07:32 9,8 C 99 % 1024,4 hPa 0,0 l/m 0,0 km/h (0 Bft) NO 41 0 min 0,000 mm 0,0 UV-I 55 W/m 9,7 C 9,8 C 0,0 km/h (0 Bft) 0,00 %
08.09.2015 07:37 9,8 C 99 % 1024,6 hPa 0,0 l/m 0,0 km/h (0 Bft) N 358 0 min 0,000 mm 0,0 UV-I 60 W/m 9,7 C 9,8 C 0,0 km/h (0 Bft) 0,00 %
08.09.2015 07:42 9,9 C 99 % 1024,5 hPa 0,0 l/m 0,0 km/h (0 Bft) N 357 0 min 0,000 mm 0,0 UV-I 74 W/m 9,8 C 9,9 C 0,0 km/h (0 Bft) 0,00 %
08.09.2015 07:47 9,9 C 98 % 1024,4 hPa 0,0 l/m 0,0 km/h (0 Bft) N-NO 25 0 min 0,000 mm 0,0 UV-I 70 W/m 9,6 C 9,9 C 0,0 km/h (0 Bft) 0,00 %
08.09.2015 07:52 10,0 C 98 % 1024,6 hPa 0,0 l/m 0,0 km/h (0 Bft) N-NO 27 0 min 0,000 mm 0,0 UV-I 70 W/m 9,7 C 10,0 C 0,0 km/h (0 Bft) 0,00 %
08.09.2015 07:57 10,2 C 98 % 1024,1 hPa 0,0 l/m 0,0 km/h (0 Bft) N-NO 33 0 min 0,000 mm 0,0 UV-I 96 W/m 9,9 C 10,2 C 0,0 km/h (0 Bft) 0,00 %
08.09.2015 08:02 10,3 C 98 % 1024,0 hPa 0,0 l/m 0,0 km/h (0 Bft) N-NO 30 0 min 0,000 mm 0,0 UV-I 119 W/m 10,0 C 10,3 C 0,0 km/h (0 Bft) 0,00 %
08.09.2015 08:07 10,4 C 98 % 1024,2 hPa 0,0 l/m 0,0 km/h (0 Bft) N-NO 27 0 min 0,000 mm 0,0 UV-I 104 W/m 10,1 C 10,4 C 0,0 km/h (0 Bft) 0,00 %
08.09.2015 08:12 10,6 C 98 % 1024,3 hPa 0,0 l/m 0,0 km/h (0 Bft) N-NO 19 0 min 0,000 mm 1,0 UV-I 97 W/m 10,3 C 10,6 C 0,0 km/h (0 Bft) 0,00 %
08.09.2015 08:17 10,6 C 98 % 1024,1 hPa 0,0 l/m 0,0 km/h (0 Bft) W-SW 257 0 min 0,000 mm 0,0 UV-I 89 W/m 10,3 C 10,6 C 0,0 km/h (0 Bft) 0,00 %
08.09.2015 08:22 10,6 C 98 % 1024,4 hPa 0,0 l/m 0,0 km/h (0 Bft) N 353 0 min 0,000 mm 1,0 UV-I 79 W/m 10,3 C 10,6 C 0,0 km/h (0 Bft) 0,00 %
08.09.2015 08:27 10,6 C 98 % 1023,9 hPa 0,0 l/m 0,0 km/h (0 Bft) NO 48 5 min 0,000 mm 1,0 UV-I 184 W/m 10,3 C 10,6 C 0,0 km/h (0 Bft) 0,00 %
08.09.2015 08:32 10,9 C 97 % 1023,9 hPa 0,0 l/m 0,0 km/h (0 Bft) N 354 0 min 0,000 mm 1,0 UV-I 164 W/m 10,4 C 10,9 C 0,0 km/h (0 Bft) 0,00 %
08.09.2015 08:37 11,2 C 97 % 1023,8 hPa 0,0 l/m 0,0 km/h (0 Bft) NW 314 0 min 0,000 mm 1,0 UV-I 123 W/m 10,7 C 11,2 C 0,0 km/h (0 Bft) 0,00 %
08.09.2015 08:42 11,3 C 97 % 1023,9 hPa 0,0 l/m 0,0 km/h (0 Bft) N-NO 29 0 min 0,000 mm 1,0 UV-I 129 W/m 10,8 C 11,3 C 0,0 km/h (0 Bft) 0,00 %
08.09.2015 08:47 11,3 C 96 % 1023,9 hPa 0,0 l/m 0,0 km/h (0 Bft) N-NW 336 0 min 0,000 mm 1,0 UV-I 122 W/m 10,7 C 11,3 C 0,0 km/h (0 Bft) 0,00 %
08.09.2015 08:52 11,4 C 95 % 1023,9 hPa 0,0 l/m 0,0 km/h (0 Bft) N-NW 336 0 min 0,000 mm 1,0 UV-I 141 W/m 10,6 C 11,4 C 0,0 km/h (0 Bft) 0,00 %
08.09.2015 08:57 11,5 C 94 % 1024,0 hPa 0,0 l/m 0,0 km/h (0 Bft) NO 48 0 min 0,000 mm 1,0 UV-I 139 W/m 10,6 C 11,5 C 0,0 km/h (0 Bft) 0,00 %
08.09.2015 09:02 11,5 C 93 % 1023,9 hPa 0,0 l/m 0,0 km/h (0 Bft) N-NW 338 0 min 0,000 mm 1,0 UV-I 165 W/m 10,4 C 11,5 C 0,0 km/h (0 Bft) 0,00 %
08.09.2015 09:07 11,6 C 92 % 1023,9 hPa 0,0 l/m 0,0 km/h (0 Bft) N 351 0 min 0,000 mm 1,0 UV-I 154 W/m 10,3 C 11,6 C 0,0 km/h (0 Bft) 0,00 %
08.09.2015 09:12 11,7 C 91 % 1023,7 hPa 0,0 l/m 0,0 km/h (0 Bft) NO 38 0 min 0,000 mm 1,0 UV-I 168 W/m 10,3 C 11,7 C 0,0 km/h (0 Bft) 0,00 %
08.09.2015 09:17 11,8 C 90 % 1023,8 hPa 0,0 l/m 0,0 km/h (0 Bft) W-SW 257 0 min 0,000 mm 1,0 UV-I 204 W/m 10,2 C 11,8 C 0,0 km/h (0 Bft) 0,00 %
08.09.2015 09:22 12,0 C 90 % 1024,0 hPa 0,0 l/m 0,0 km/h (0 Bft) NO 39 5 min 0,000 mm 1,0 UV-I 283 W/m 10,4 C 12,0 C 0,0 km/h (0 Bft) 0,00 %
08.09.2015 09:27 12,4 C 87 % 1023,9 hPa 0,0 l/m 0,0 km/h (0 Bft) N-NO 29 5 min 0,000 mm 1,0 UV-I 272 W/m 10,3 C 12,4 C 0,0 km/h (0 Bft) 0,00 %
08.09.2015 09:32 12,8 C 83 % 1023,8 hPa 0,0 l/m 0,0 km/h (0 Bft) W-NW 290 0 min 0,000 mm 1,0 UV-I 247 W/m 10,0 C 12,8 C 0,0 km/h (0 Bft) 0,00 %
08.09.2015 09:37 13,0 C 82 % 1023,8 hPa 0,0 l/m 0,0 km/h (0 Bft) NO 43 0 min 0,000 mm 1,0 UV-I 229 W/m 10,0 C 13,0 C 0,0 km/h (0 Bft) 0,00 %
08.09.2015 09:42 13,0 C 82 % 1024,0 hPa 0,0 l/m 2,9 km/h (1 Bft) N-NW 329 0 min 0,000 mm 1,0 UV-I 165 W/m 10,0 C 13,0 C 4,0 km/h (1 Bft) 0,00 %
08.09.2015 09:47 12,8 C 82 % 1023,7 hPa 0,0 l/m 0,0 km/h (0 Bft) O-NO 58 0 min 0,000 mm 1,0 UV-I 191 W/m 9,8 C 12,8 C 0,0 km/h (0 Bft) 0,00 %
08.09.2015 09:52 12,7 C 82 % 1023,7 hPa 0,0 l/m 0,7 km/h (0 Bft) N-NW 348 0 min 0,000 mm 1,0 UV-I 257 W/m 9,7 C 12,7 C 4,0 km/h (1 Bft) 0,00 %
08.09.2015 09:57 12,8 C 78 % 1023,7 hPa 0,0 l/m 0,0 km/h (0 Bft) N-NO 28 0 min 0,000 mm 1,0 UV-I 258 W/m 9,1 C 12,8 C 0,0 km/h (0 Bft) 0,00 %
08.09.2015 10:02 12,9 C 79 % 1023,9 hPa 0,0 l/m 0,0 km/h (0 Bft) N-NO 20 0 min 0,000 mm 1,0 UV-I 205 W/m 9,3 C 12,9 C 0,0 km/h (0 Bft) 0,00 %
08.09.2015 10:07 12,9 C 81 % 1023,7 hPa 0,0 l/m 0,0 km/h (0 Bft) N-NO 21 5 min 0,000 mm 2,0 UV-I 349 W/m 9,7 C 12,9 C 0,0 km/h (0 Bft) 0,00 %
08.09.2015 10:12 13,3 C 77 % 1023,8 hPa 0,0 l/m 1,8 km/h (1 Bft) W-SW 256 5 min 0,000 mm 2,0 UV-I 328 W/m 9,4 C 13,3 C 4,0 km/h (1 Bft) 0,00 %
08.09.2015 10:17 14,1 C 73 % 1023,7 hPa 0,0 l/m 1,4 km/h (1 Bft) W-SW 256 5 min 0,000 mm 2,0 UV-I 400 W/m 9,3 C 14,1 C 4,0 km/h (1 Bft) 0,00 %
08.09.2015 10:22 14,8 C 70 % 1023,8 hPa 0,0 l/m 4,3 km/h (1 Bft) W 280 5 min 0,000 mm 2,0 UV-I 445 W/m 9,4 C 14,8 C 7,9 km/h (2 Bft) 0,00 %
08.09.2015 10:27 15,3 C 66 % 1023,7 hPa 0,0 l/m 0,0 km/h (0 Bft) N 349 0 min 0,000 mm 1,0 UV-I 267 W/m 9,0 C 15,3 C 0,0 km/h (0 Bft) 0,00 %
08.09.2015 10:32 15,5 C 65 % 1023,8 hPa 0,0 l/m 0,0 km/h (0 Bft) NW 310 5 min 0,000 mm 2,0 UV-I 484 W/m 8,9 C 15,5 C 0,0 km/h (0 Bft) 0,00 %
08.09.2015 10:37 15,5 C 66 % 1023,7 hPa 0,0 l/m 0,0 km/h (0 Bft) N 354 5 min 0,000 mm 2,0 UV-I 472 W/m 9,2 C 15,5 C 0,0 km/h (0 Bft) 0,00 %
08.09.2015 10:42 15,5 C 65 % 1023,7 hPa 0,0 l/m 0,0 km/h (0 Bft) NO 49 5 min 0,000 mm 2,0 UV-I 428 W/m 8,9 C 15,5 C 0,0 km/h (0 Bft) 0,00 %
08.09.2015 10:47 15,6 C 68 % 1023,8 hPa 0,0 l/m 0,7 km/h (0 Bft) N-NO 27 5 min 0,000 mm 2,0 UV-I 405 W/m 9,7 C 15,6 C 4,0 km/h (1 Bft) 0,00 %
08.09.2015 10:52 15,6 C 67 % 1023,8 hPa 0,0 l/m 0,0 km/h (0 Bft) NO 39 5 min 0,000 mm 2,0 UV-I 501 W/m 9,5 C 15,6 C 0,0 km/h (0 Bft) 0,00 %
08.09.2015 10:57 15,8 C 65 % 1023,7 hPa 0,0 l/m 1,8 km/h (1 Bft) N-NW 344 5 min 0,000 mm 2,0 UV-I 394 W/m 9,2 C 15,8 C 4,0 km/h (1 Bft) 0,00 %
08.09.2015 11:02 16,1 C 65 % 1023,8 hPa 0,0 l/m 0,4 km/h (0 Bft) NW 322 5 min 0,000 mm 2,0 UV-I 565 W/m 9,5 C 16,1 C 4,0 km/h (1 Bft) 0,00 %
08.09.2015 11:07 16,3 C 63 % 1023,9 hPa 0,0 l/m 0,0 km/h (0 Bft) N 350 0 min 0,000 mm 2,0 UV-I 302 W/m 9,2 C 16,3 C 0,0 km/h (0 Bft) 0,00 %
08.09.2015 11:12 16,3 C 59 % 1023,8 hPa 0,0 l/m 1,8 km/h (1 Bft) W-SW 256 5 min 0,000 mm 2,0 UV-I 528 W/m 8,3 C 16,3 C 4,0 km/h (1 Bft) 0,00 %
08.09.2015 11:17 16,0 C 62 % 1023,7 hPa 0,0 l/m 0,0 km/h (0 Bft) S 191 5 min 0,000 mm 2,0 UV-I 587 W/m 8,7 C 16,0 C 0,0 km/h (0 Bft) 0,00 %
08.09.2015 11:22 16,0 C 59 % 1023,9 hPa 0,0 l/m 0,0 km/h (0 Bft) N-NO 18 0 min 0,000 mm 2,0 UV-I 283 W/m 8,0 C 16,0 C 0,0 km/h (0 Bft) 0,00 %
08.09.2015 11:27 16,1 C 61 % 1023,6 hPa 0,0 l/m 0,0 km/h (0 Bft) NO 48 5 min 0,000 mm 2,0 UV-I 606 W/m 8,6 C 16,1 C 0,0 km/h (0 Bft) 0,00 %
08.09.2015 11:32 16,1 C 59 % 1023,4 hPa 0,0 l/m 2,2 km/h (1 Bft) N-NW 330 5 min 0,000 mm 2,0 UV-I 626 W/m 8,1 C 16,1 C 4,0 km/h (1 Bft) 0,00 %
08.09.2015 11:37 16,6 C 57 % 1023,5 hPa 0,0 l/m 1,8 km/h (1 Bft) N 353 5 min 0,000 mm 3,0 UV-I 650 W/m 8,0 C 16,6 C 4,0 km/h (1 Bft) 0,00 %
08.09.2015 11:42 17,2 C 56 % 1023,3 hPa 0,0 l/m 0,0 km/h (0 Bft) O-NO 57 5 min 0,000 mm 3,0 UV-I 702 W/m 8,3 C 17,2 C 0,0 km/h (0 Bft) 0,00 %
08.09.2015 11:47 17,7 C 53 % 1023,2 hPa 0,0 l/m 0,0 km/h (0 Bft) W-NW 291 5 min 0,000 mm 3,0 UV-I 716 W/m 8,0 C 17,7 C 0,0 km/h (0 Bft) 0,00 %
08.09.2015 11:52 17,8 C 52 % 1023,3 hPa 0,0 l/m 9,0 km/h (2 Bft) W-SW 256 5 min 0,000 mm 3,0 UV-I 697 W/m 7,8 C 16,6 C 11,9 km/h (2 Bft) 0,00 %
08.09.2015 11:57 17,5 C 58 % 1023,4 hPa 0,0 l/m 2,9 km/h (1 Bft) W-SW 256 5 min 0,000 mm 3,0 UV-I 734 W/m 9,1 C 17,5 C 4,0 km/h (1 Bft) 0,00 %
08.09.2015 12:02 17,5 C 49 % 1023,2 hPa 0,0 l/m 1,4 km/h (1 Bft) W-SW 252 5 min 0,000 mm 3,0 UV-I 766 W/m 6,7 C 17,5 C 4,0 km/h (1 Bft) 0,00 %
08.09.2015 12:07 17,7 C 48 % 1023,2 hPa 0,0 l/m 0,0 km/h (0 Bft) NO 56 5 min 0,000 mm 3,0 UV-I 777 W/m 6,6 C 17,7 C 0,0 km/h (0 Bft) 0,00 %
08.09.2015 12:12 17,7 C 50 % 1023,4 hPa 0,0 l/m 1,8 km/h (1 Bft) W-NW 291 5 min 0,000 mm 2,0 UV-I 569 W/m 7,1 C 17,7 C 4,0 km/h (1 Bft) 0,00 %
08.09.2015 12:17 17,3 C 52 % 1023,3 hPa 0,0 l/m 0,0 km/h (0 Bft) O-NO 63 5 min 0,000 mm 3,0 UV-I 571 W/m 7,3 C 17,3 C 0,0 km/h (0 Bft) 0,00 %
08.09.2015 12:22 17,1 C 48 % 1023,3 hPa 0,0 l/m 1,8 km/h (1 Bft) O 93 5 min 0,000 mm 3,0 UV-I 593 W/m 6,0 C 17,1 C 4,0 km/h (1 Bft) 0,00 %
08.09.2015 12:27 16,9 C 46 % 1023,3 hPa 0,0 l/m 0,4 km/h (0 Bft) N-NO 27 5 min 0,000 mm 3,0 UV-I 684 W/m 5,2 C 16,9 C 4,0 km/h (1 Bft) 0,00 %
08.09.2015 12:32 16,7 C 46 % 1023,3 hPa 0,0 l/m 1,8 km/h (1 Bft) W 278 5 min 0,000 mm 3,0 UV-I 653 W/m 5,0 C 16,7 C 4,0 km/h (1 Bft) 0,00 %
08.09.2015 12:37 16,5 C 49 % 1023,2 hPa 0,0 l/m 1,4 km/h (1 Bft) O-NO 65 0 min 0,000 mm 2,0 UV-I 237 W/m 5,8 C 16,5 C 4,0 km/h (1 Bft) 0,00 %
08.09.2015 12:42 16,5 C 51 % 1023,0 hPa 0,0 l/m 6,5 km/h (2 Bft) W-SW 256 5 min 0,000 mm 3,0 UV-I 717 W/m 6,3 C 16,5 C 7,9 km/h (2 Bft) 0,00 %
08.09.2015 12:47 16,6 C 51 % 1023,2 hPa 0,0 l/m 1,8 km/h (1 Bft) W-SW 256 5 min 0,000 mm 3,0 UV-I 730 W/m 6,4 C 16,6 C 4,0 km/h (1 Bft) 0,00 %
08.09.2015 12:52 16,9 C 51 % 1023,1 hPa 0,0 l/m 0,0 km/h (0 Bft) O 79 5 min 0,000 mm 3,0 UV-I 743 W/m 6,7 C 16,9 C 0,0 km/h (0 Bft) 0,00 %
08.09.2015 12:57 17,1 C 46 % 1023,1 hPa 0,0 l/m 3,2 km/h (1 Bft) NW 314 5 min 0,000 mm 3,0 UV-I 778 W/m 5,4 C 17,1 C 4,0 km/h (1 Bft) 0,00 %
08.09.2015 13:02 17,4 C 46 % 1023,2 hPa 0,0 l/m 0,0 km/h (0 Bft) NO 40 0 min 0,000 mm 2,0 UV-I 270 W/m 5,7 C 17,4 C 0,0 km/h (0 Bft) 0,00 %
08.09.2015 13:07 17,2 C 49 % 1023,0 hPa 0,0 l/m 1,4 km/h (1 Bft) N-NO 28 5 min 0,000 mm 3,0 UV-I 794 W/m 6,4 C 17,2 C 4,0 km/h (1 Bft) 0,00 %
08.09.2015 13:12 17,2 C 50 % 1023,0 hPa 0,0 l/m 2,2 km/h (1 Bft) NO 37 5 min 0,000 mm 3,0 UV-I 800 W/m 6,7 C 17,2 C 4,0 km/h (1 Bft) 0,00 %
08.09.2015 13:17 17,6 C 44 % 1022,9 hPa 0,0 l/m 4,7 km/h (1 Bft) S-SW 202 5 min 0,000 mm 3,0 UV-I 842 W/m 5,2 C 17,6 C 7,9 km/h (2 Bft) 0,00 %
08.09.2015 13:22 17,9 C 42 % 1022,9 hPa 0,0 l/m 4,7 km/h (1 Bft) S 187 5 min 0,000 mm 3,0 UV-I 844 W/m 4,8 C 17,9 C 7,9 km/h (2 Bft) 0,00 %
08.09.2015 13:27 18,2 C 41 % 1022,8 hPa 0,0 l/m 2,9 km/h (1 Bft) NW 322 5 min 0,000 mm 3,0 UV-I 837 W/m 4,7 C 18,2 C 4,0 km/h (1 Bft) 0,00 %
08.09.2015 13:32 18,4 C 41 % 1022,7 hPa 0,0 l/m 1,8 km/h (1 Bft) N 7 5 min 0,000 mm 3,0 UV-I 840 W/m 4,9 C 18,4 C 4,0 km/h (1 Bft) 0,00 %
08.09.2015 13:37 18,5 C 41 % 1022,9 hPa 0,0 l/m 0,0 km/h (0 Bft) N 355 5 min 0,000 mm 3,0 UV-I 729 W/m 5,0 C 18,5 C 0,0 km/h (0 Bft) 0,00 %
08.09.2015 13:42 18,2 C 43 % 1022,7 hPa 0,0 l/m 5,8 km/h (2 Bft) SW 216 5 min 0,000 mm 3,0 UV-I 778 W/m 5,4 C 18,2 C 11,9 km/h (2 Bft) 0,00 %
08.09.2015 13:47 18,2 C 42 % 1022,7 hPa 0,0 l/m 0,0 km/h (0 Bft) N-NO 19 5 min 0,000 mm 2,0 UV-I 668 W/m 5,1 C 18,2 C 0,0 km/h (0 Bft) 0,00 %
08.09.2015 13:52 18,4 C 39 % 1022,7 hPa 0,0 l/m 0,4 km/h (0 Bft) NO 44 5 min 0,000 mm 2,0 UV-I 629 W/m 4,2 C 18,4 C 4,0 km/h (1 Bft) 0,00 %
08.09.2015 13:57 18,3 C 41 % 1022,7 hPa 0,0 l/m 0,0 km/h (0 Bft) NO 44 5 min 0,000 mm 2,0 UV-I 562 W/m 4,8 C 18,3 C 0,0 km/h (0 Bft) 0,00 %
08.09.2015 14:02 18,2 C 41 % 1022,7 hPa 0,0 l/m 7,9 km/h (2 Bft) W 277 5 min 0,000 mm 2,0 UV-I 457 W/m 4,7 C 17,5 C 11,9 km/h (2 Bft) 0,00 %
08.09.2015 14:07 18,0 C 43 % 1022,6 hPa 0,0 l/m 1,8 km/h (1 Bft) W-SW 256 5 min 0,000 mm 2,0 UV-I 616 W/m 5,2 C 18,0 C 4,0 km/h (1 Bft) 0,00 %
08.09.2015 14:12 17,6 C 44 % 1022,6 hPa 0,0 l/m 0,4 km/h (0 Bft) N-NW 337 5 min 0,000 mm 3,0 UV-I 755 W/m 5,2 C 17,6 C 4,0 km/h (1 Bft) 0,00 %
08.09.2015 14:17 17,5 C 44 % 1022,5 hPa 0,0 l/m 8,3 km/h (2 Bft) W-NW 301 5 min 0,000 mm 2,0 UV-I 680 W/m 5,1 C 16,6 C 11,9 km/h (2 Bft) 0,00 %
08.09.2015 14:22 17,7 C 43 % 1022,3 hPa 0,0 l/m 0,0 km/h (0 Bft) N 8 5 min 0,000 mm 2,0 UV-I 720 W/m 5,0 C 17,7 C 0,0 km/h (0 Bft) 0,00 %
08.09.2015 14:27 18,1 C 38 % 1022,2 hPa 0,0 l/m 3,2 km/h (1 Bft) W 280 5 min 0,000 mm 3,0 UV-I 811 W/m 3,6 C 18,1 C 4,0 km/h (1 Bft) 0,00 %
08.09.2015 14:32 18,6 C 36 % 1022,5 hPa 0,0 l/m 0,7 km/h (0 Bft) W 263 5 min 0,000 mm 2,0 UV-I 834 W/m 3,2 C 18,6 C 4,0 km/h (1 Bft) 0,00 %
08.09.2015 14:37 18,7 C 37 % 1022,5 hPa 0,0 l/m 4,0 km/h (1 Bft) N-NW 340 5 min 0,000 mm 2,0 UV-I 740 W/m 3,7 C 18,7 C 4,0 km/h (1 Bft) 0,00 %
08.09.2015 14:42 18,3 C 38 % 1022,5 hPa 0,0 l/m 0,4 km/h (0 Bft) S 180 5 min 0,000 mm 1,0 UV-I 586 W/m 3,7 C 18,3 C 4,0 km/h (1 Bft) 0,00 %
08.09.2015 14:47 17,8 C 46 % 1022,2 hPa 0,0 l/m 0,0 km/h (0 Bft) NW 319 5 min 0,000 mm 1,0 UV-I 777 W/m 6,0 C 17,8 C 0,0 km/h (0 Bft) 0,00 %
08.09.2015 14:52 17,4 C 46 % 1022,3 hPa 0,0 l/m 0,4 km/h (0 Bft) N-NO 25 5 min 0,000 mm 1,0 UV-I 803 W/m 5,7 C 17,4 C 4,0 km/h (1 Bft) 0,00 %
08.09.2015 14:57 17,6 C 46 % 1022,0 hPa 0,0 l/m 2,9 km/h (1 Bft) W-SW 258 5 min 0,000 mm 1,0 UV-I 759 W/m 5,8 C 17,6 C 4,0 km/h (1 Bft) 0,00 %
08.09.2015 15:02 17,7 C 47 % 1022,1 hPa 0,0 l/m 0,0 km/h (0 Bft) W-NW 302 5 min 0,000 mm 1,0 UV-I 822 W/m 6,2 C 17,7 C 0,0 km/h (0 Bft) 0,00 %
08.09.2015 15:07 17,6 C 43 % 1022,1 hPa 0,0 l/m 4,3 km/h (1 Bft) N 357 5 min 0,000 mm 1,0 UV-I 662 W/m 4,9 C 17,6 C 7,9 km/h (2 Bft) 0,00 %
08.09.2015 15:12 17,4 C 45 % 1022,0 hPa 0,0 l/m 0,7 km/h (0 Bft) W-SW 256 5 min 0,000 mm 1,0 UV-I 780 W/m 5,3 C 17,4 C 4,0 km/h (1 Bft) 0,00 %
08.09.2015 15:17 17,3 C 43 % 1022,0 hPa 0,0 l/m 0,0 km/h (0 Bft) N-NO 30 5 min 0,000 mm 1,0 UV-I 670 W/m 4,6 C 17,3 C 0,0 km/h (0 Bft) 0,00 %
08.09.2015 15:22 17,3 C 43 % 1022,1 hPa 0,0 l/m 0,4 km/h (0 Bft) N-NW 340 5 min 0,000 mm 1,0 UV-I 670 W/m 4,6 C 17,3 C 4,0 km/h (1 Bft) 0,00 %
08.09.2015 15:27 17,4 C 45 % 1022,0 hPa 0,0 l/m 0,4 km/h (0 Bft) NO 37 5 min 0,000 mm 1,0 UV-I 767 W/m 5,3 C 17,4 C 4,0 km/h (1 Bft) 0,00 %
08.09.2015 15:32 17,5 C 42 % 1021,9 hPa 0,0 l/m 1,4 km/h (1 Bft) N-NW 334 5 min 0,000 mm 1,0 UV-I 678 W/m 4,4 C 17,5 C 4,0 km/h (1 Bft) 0,00 %
08.09.2015 15:37 17,6 C 44 % 1021,9 hPa 0,0 l/m 0,0 km/h (0 Bft) NO 35 5 min 0,000 mm 1,0 UV-I 680 W/m 5,2 C 17,6 C 0,0 km/h (0 Bft) 0,00 %
08.09.2015 15:42 17,7 C 44 % 1022,0 hPa 0,0 l/m 0,4 km/h (0 Bft) NW 323 5 min 0,000 mm 1,0 UV-I 685 W/m 5,3 C 17,7 C 4,0 km/h (1 Bft) 0,00 %
08.09.2015 15:47 17,8 C 46 % 1021,7 hPa 0,0 l/m 2,9 km/h (1 Bft) NW 313 5 min 0,000 mm 1,0 UV-I 690 W/m 6,0 C 17,8 C 4,0 km/h (1 Bft) 0,00 %
08.09.2015 15:52 17,8 C 45 % 1021,8 hPa 0,0 l/m 0,4 km/h (0 Bft) O 89 5 min 0,000 mm 1,0 UV-I 700 W/m 5,7 C 17,8 C 4,0 km/h (1 Bft) 0,00 %
08.09.2015 15:57 17,6 C 44 % 1021,7 hPa 0,0 l/m 0,0 km/h (0 Bft) O-NO 58 5 min 0,000 mm 1,0 UV-I 702 W/m 5,2 C 17,6 C 0,0 km/h (0 Bft) 0,00 %
08.09.2015 16:02 17,5 C 43 % 1021,7 hPa 0,0 l/m 4,3 km/h (1 Bft) W-SW 256 5 min 0,000 mm 1,0 UV-I 688 W/m 4,8 C 17,5 C 7,9 km/h (2 Bft) 0,00 %
08.09.2015 16:07 17,6 C 42 % 1021,6 hPa 0,0 l/m 2,9 km/h (1 Bft) N-NW 346 5 min 0,000 mm 1,0 UV-I 677 W/m 4,5 C 17,6 C 4,0 km/h (1 Bft) 0,00 %
08.09.2015 16:12 17,6 C 47 % 1021,6 hPa 0,0 l/m 0,0 km/h (0 Bft) NO 56 5 min 0,000 mm 1,0 UV-I 688 W/m 6,2 C 17,6 C 0,0 km/h (0 Bft) 0,00 %
08.09.2015 16:17 17,5 C 46 % 1021,7 hPa 0,0 l/m 0,4 km/h (0 Bft) N 351 5 min 0,000 mm 1,0 UV-I 693 W/m 5,8 C 17,5 C 4,0 km/h (1 Bft) 0,00 %
08.09.2015 16:22 17,6 C 43 % 1022,2 hPa 0,0 l/m 0,0 km/h (0 Bft) N 355 5 min 0,000 mm 1,0 UV-I 680 W/m 4,9 C 17,6 C 0,0 km/h (0 Bft) 0,00 %
08.09.2015 16:27 17,6 C 45 % 1022,1 hPa 0,0 l/m 1,4 km/h (1 Bft) N 355 5 min 0,000 mm 1,0 UV-I 660 W/m 5,5 C 17,6 C 4,0 km/h (1 Bft) 0,00 %
08.09.2015 16:32 17,3 C 43 % 1021,6 hPa 0,0 l/m 0,0 km/h (0 Bft) NO 46 5 min 0,000 mm 1,0 UV-I 690 W/m 4,6 C 17,3 C 0,0 km/h (0 Bft) 0,00 %
08.09.2015 16:37 17,0 C 46 % 1021,6 hPa 0,0 l/m 0,0 km/h (0 Bft) NO 47 5 min 0,000 mm 1,0 UV-I 700 W/m 5,3 C 17,0 C 0,0 km/h (0 Bft) 0,00 %
08.09.2015 16:42 17,0 C 45 % 1021,5 hPa 0,0 l/m 0,0 km/h (0 Bft) N 6 5 min 0,000 mm 1,0 UV-I 678 W/m 5,0 C 17,0 C 0,0 km/h (0 Bft) 0,00 %
08.09.2015 16:47 17,1 C 44 % 1021,5 hPa 0,0 l/m 0,0 km/h (0 Bft) W-SW 251 5 min 0,000 mm 1,0 UV-I 688 W/m 4,8 C 17,1 C 0,0 km/h (0 Bft) 0,00 %
08.09.2015 16:52 17,1 C 46 % 1021,5 hPa 0,0 l/m 0,4 km/h (0 Bft) O 98 5 min 0,000 mm 1,0 UV-I 690 W/m 5,4 C 17,1 C 4,0 km/h (1 Bft) 0,00 %
08.09.2015 16:57 17,1 C 44 % 1021,5 hPa 0,0 l/m 0,0 km/h (0 Bft) N 355 5 min 0,000 mm 1,0 UV-I 685 W/m 4,8 C 17,1 C 0,0 km/h (0 Bft) 0,00 %
08.09.2015 17:02 17,3 C 45 % 1021,5 hPa 0,0 l/m 0,4 km/h (0 Bft) N-NO 15 5 min 0,000 mm 1,0 UV-I 636 W/m 5,3 C 17,3 C 4,0 km/h (1 Bft) 0,00 %
08.09.2015 17:07 17,5 C 42 % 1021,4 hPa 0,0 l/m 0,7 km/h (0 Bft) W-SW 256 5 min 0,000 mm 1,0 UV-I 640 W/m 4,4 C 17,5 C 4,0 km/h (1 Bft) 0,00 %
08.09.2015 17:12 17,7 C 42 % 1021,2 hPa 0,0 l/m 0,0 km/h (0 Bft) O 84 5 min 0,000 mm 1,0 UV-I 633 W/m 4,6 C 17,7 C 0,0 km/h (0 Bft) 0,00 %
08.09.2015 17:17 17,9 C 41 % 1021,3 hPa 0,0 l/m 5,8 km/h (2 Bft) N-NW 334 5 min 0,000 mm 1,0 UV-I 623 W/m 4,5 C 17,9 C 7,9 km/h (2 Bft) 0,00 %
08.09.2015 17:22 18,0 C 40 % 1021,5 hPa 0,0 l/m 0,0 km/h (0 Bft) N-NO 19 5 min 0,000 mm 1,0 UV-I 622 W/m 4,2 C 18,0 C 0,0 km/h (0 Bft) 0,00 %
08.09.2015 17:27 18,1 C 40 % 1021,3 hPa 0,0 l/m 0,7 km/h (0 Bft) O-NO 75 5 min 0,000 mm 1,0 UV-I 606 W/m 4,3 C 18,1 C 4,0 km/h (1 Bft) 0,00 %
08.09.2015 17:32 18,1 C 42 % 1021,3 hPa 0,0 l/m 0,0 km/h (0 Bft) O 81 5 min 0,000 mm 1,0 UV-I 589 W/m 5,0 C 18,1 C 0,0 km/h (0 Bft) 0,00 %
08.09.2015 17:37 18,0 C 40 % 1021,3 hPa 0,0 l/m 0,0 km/h (0 Bft) N 354 5 min 0,000 mm 1,0 UV-I 575 W/m 4,2 C 18,0 C 0,0 km/h (0 Bft) 0,00 %
08.09.2015 17:42 18,0 C 40 % 1021,3 hPa 0,0 l/m 0,0 km/h (0 Bft) S-SW 196 5 min 0,000 mm 1,0 UV-I 563 W/m 4,2 C 18,0 C 0,0 km/h (0 Bft) 0,00 %
08.09.2015 17:47 18,1 C 38 % 1021,3 hPa 0,0 l/m 0,0 km/h (0 Bft) O-NO 68 5 min 0,000 mm 1,0 UV-I 551 W/m 3,6 C 18,1 C 0,0 km/h (0 Bft) 0,00 %
08.09.2015 17:52 18,0 C 39 % 1021,2 hPa 0,0 l/m 0,0 km/h (0 Bft) O-NO 60 5 min 0,000 mm 1,0 UV-I 539 W/m 3,8 C 18,0 C 0,0 km/h (0 Bft) 0,00 %
08.09.2015 17:57 17,9 C 41 % 1021,2 hPa 0,0 l/m 0,0 km/h (0 Bft) NO 35 5 min 0,000 mm 1,0 UV-I 519 W/m 4,5 C 17,9 C 0,0 km/h (0 Bft) 0,00 %
08.09.2015 18:02 18,0 C 39 % 1021,4 hPa 0,0 l/m 0,0 km/h (0 Bft) N 349 5 min 0,000 mm 1,0 UV-I 496 W/m 3,8 C 18,0 C 0,0 km/h (0 Bft) 0,00 %
08.09.2015 18:07 18,0 C 39 % 1021,5 hPa 0,0 l/m 0,0 km/h (0 Bft) N-NW 336 5 min 0,000 mm 1,0 UV-I 463 W/m 3,8 C 18,0 C 0,0 km/h (0 Bft) 0,00 %
08.09.2015 18:12 17,8 C 42 % 1021,2 hPa 0,0 l/m 0,0 km/h (0 Bft) O 83 5 min 0,000 mm 1,0 UV-I 434 W/m 4,7 C 17,8 C 0,0 km/h (0 Bft) 0,00 %
08.09.2015 18:17 17,6 C 42 % 1021,2 hPa 0,0 l/m 0,0 km/h (0 Bft) SW 232 5 min 0,000 mm 0,0 UV-I 404 W/m 4,5 C 17,6 C 0,0 km/h (0 Bft) 0,00 %
08.09.2015 18:22 17,6 C 41 % 1021,3 hPa 0,0 l/m 0,0 km/h (0 Bft) N 354 5 min 0,000 mm 0,0 UV-I 382 W/m 4,2 C 17,6 C 0,0 km/h (0 Bft) 0,00 %
08.09.2015 18:27 17,5 C 41 % 1021,4 hPa 0,0 l/m 0,0 km/h (0 Bft) NO 50 5 min 0,000 mm 0,0 UV-I 354 W/m 4,1 C 17,5 C 0,0 km/h (0 Bft) 0,00 %
08.09.2015 18:32 17,3 C 41 % 1021,3 hPa 0,0 l/m 0,0 km/h (0 Bft) NO 34 5 min 0,000 mm 0,0 UV-I 318 W/m 3,9 C 17,3 C 0,0 km/h (0 Bft) 0,00 %
08.09.2015 18:37 17,2 C 42 % 1021,3 hPa 0,0 l/m 0,0 km/h (0 Bft) N-NO 31 5 min 0,000 mm 0,0 UV-I 284 W/m 4,2 C 17,2 C 0,0 km/h (0 Bft) 0,00 %
08.09.2015 18:42 17,0 C 39 % 1021,3 hPa 0,0 l/m 0,0 km/h (0 Bft) N-NO 21 5 min 0,000 mm 0,0 UV-I 259 W/m 2,9 C 17,0 C 0,0 km/h (0 Bft) 0,00 %
08.09.2015 18:47 16,7 C 40 % 1021,3 hPa 0,0 l/m 0,0 km/h (0 Bft) N-NW 340 5 min 0,000 mm 0,0 UV-I 230 W/m 3,0 C 16,7 C 0,0 km/h (0 Bft) 0,00 %
08.09.2015 18:52 16,4 C 42 % 1021,3 hPa 0,0 l/m 0,0 km/h (0 Bft) NO 39 5 min 0,000 mm 0,0 UV-I 193 W/m 3,5 C 16,4 C 0,0 km/h (0 Bft) 0,00 %
08.09.2015 18:57 16,1 C 46 % 1021,4 hPa 0,0 l/m 0,0 km/h (0 Bft) N 5 5 min 0,000 mm 0,0 UV-I 157 W/m 4,5 C 16,1 C 0,0 km/h (0 Bft) 0,00 %
08.09.2015 19:02 15,9 C 46 % 1021,4 hPa 0,0 l/m 0,0 km/h (0 Bft) N-NO 22 5 min 0,000 mm 0,0 UV-I 127 W/m 4,3 C 15,9 C 0,0 km/h (0 Bft) 0,00 %
08.09.2015 19:07 15,6 C 48 % 1021,6 hPa 0,0 l/m 0,0 km/h (0 Bft) NO 43 5 min 0,000 mm 0,0 UV-I 45 W/m 4,6 C 15,6 C 0,0 km/h (0 Bft) 0,00 %
08.09.2015 19:12 15,2 C 50 % 1021,5 hPa 0,0 l/m 0,0 km/h (0 Bft) NO 41 5 min 0,000 mm 0,0 UV-I 30 W/m 4,8 C 15,2 C 0,0 km/h (0 Bft) 0,00 %
08.09.2015 19:17 14,9 C 51 % 1021,4 hPa 0,0 l/m 0,0 km/h (0 Bft) NO 44 5 min 0,000 mm 0,0 UV-I 21 W/m 4,9 C 14,9 C 0,0 km/h (0 Bft) 0,00 %
08.09.2015 19:22 14,4 C 52 % 1021,7 hPa 0,0 l/m 0,0 km/h (0 Bft) NO 53 0 min 0,000 mm 0,0 UV-I 11 W/m 4,7 C 14,4 C 0,0 km/h (0 Bft) 0,00 %
08.09.2015 19:27 13,9 C 53 % 1021,6 hPa 0,0 l/m 0,0 km/h (0 Bft) NO 47 0 min 0,000 mm 0,0 UV-I 5 W/m 4,5 C 13,9 C 0,0 km/h (0 Bft) 0,00 %
08.09.2015 19:32 13,5 C 54 % 1021,5 hPa 0,0 l/m 0,0 km/h (0 Bft) NO 48 0 min 0,000 mm 0,0 UV-I 0 W/m 4,4 C 13,5 C 0,0 km/h (0 Bft) 0,00 %
08.09.2015 19:37 13,1 C 58 % 1021,6 hPa 0,0 l/m 0,0 km/h (0 Bft) NO 53 0 min 0,000 mm 0,0 UV-I 0 W/m 5,0 C 13,1 C 0,0 km/h (0 Bft) 0,00 %
08.09.2015 19:42 12,7 C 62 % 1021,7 hPa 0,0 l/m 0,0 km/h (0 Bft) NO 48 0 min 0,000 mm 0,0 UV-I 0 W/m 5,6 C 12,7 C 0,0 km/h (0 Bft) 0,00 %
08.09.2015 19:47 12,4 C 63 % 1021,8 hPa 0,0 l/m 0,0 km/h (0 Bft) O-NO 63 0 min 0,000 mm 0,0 UV-I 0 W/m 5,6 C 12,4 C 0,0 km/h (0 Bft) 0,00 %
08.09.2015 19:52 12,1 C 64 % 1021,6 hPa 0,0 l/m 0,0 km/h (0 Bft) O-NO 62 0 min 0,000 mm 0,0 UV-I 0 W/m 5,5 C 12,1 C 0,0 km/h (0 Bft) 0,00 %
08.09.2015 19:57 11,8 C 66 % 1021,7 hPa 0,0 l/m 0,0 km/h (0 Bft) O-NO 61 0 min 0,000 mm 0,0 UV-I 0 W/m 5,7 C 11,8 C 0,0 km/h (0 Bft) 0,00 %
08.09.2015 20:02 11,5 C 66 % 1021,7 hPa 0,0 l/m 0,0 km/h (0 Bft) O-NO 58 0 min 0,000 mm 0,0 UV-I 0 W/m 5,4 C 11,5 C 0,0 km/h (0 Bft) 0,00 %
08.09.2015 20:07 11,3 C 65 % 1021,9 hPa 0,0 l/m 0,0 km/h (0 Bft) O-NO 60 0 min 0,000 mm 0,0 UV-I 0 W/m 5,0 C 11,3 C 0,0 km/h (0 Bft) 0,00 %
08.09.2015 20:12 11,2 C 65 % 1021,9 hPa 0,0 l/m 0,0 km/h (0 Bft) NO 52 0 min 0,000 mm 0,0 UV-I 0 W/m 4,9 C 11,2 C 0,0 km/h (0 Bft) 0,00 %
08.09.2015 20:17 11,0 C 66 % 1022,0 hPa 0,0 l/m 0,0 km/h (0 Bft) O-NO 59 0 min 0,000 mm 0,0 UV-I 0 W/m 4,9 C 11,0 C 0,0 km/h (0 Bft) 0,00 %
08.09.2015 20:22 10,9 C 65 % 1021,9 hPa 0,0 l/m 0,0 km/h (0 Bft) O-NO 59 0 min 0,000 mm 0,0 UV-I 0 W/m 4,6 C 10,9 C 0,0 km/h (0 Bft) 0,00 %
08.09.2015 20:27 10,9 C 65 % 1021,9 hPa 0,0 l/m 0,0 km/h (0 Bft) NO 53 0 min 0,000 mm 0,0 UV-I 0 W/m 4,6 C 10,9 C 0,0 km/h (0 Bft) 0,00 %
08.09.2015 20:32 10,8 C 65 % 1022,1 hPa 0,0 l/m 0,0 km/h (0 Bft) NO 50 0 min 0,000 mm 0,0 UV-I 0 W/m 4,5 C 10,8 C 0,0 km/h (0 Bft) 0,00 %
08.09.2015 20:37 10,8 C 67 % 1022,1 hPa 0,0 l/m 0,0 km/h (0 Bft) NO 54 0 min 0,000 mm 0,0 UV-I 0 W/m 4,9 C 10,8 C 0,0 km/h (0 Bft) 0,00 %
08.09.2015 20:42 10,6 C 69 % 1022,0 hPa 0,0 l/m 0,0 km/h (0 Bft) O-NO 65 0 min 0,000 mm 0,0 UV-I 0 W/m 5,2 C 10,6 C 0,0 km/h (0 Bft) 0,00 %
08.09.2015 20:47 10,4 C 68 % 1022,0 hPa 0,0 l/m 0,0 km/h (0 Bft) O-NO 65 0 min 0,000 mm 0,0 UV-I 0 W/m 4,8 C 10,4 C 0,0 km/h (0 Bft) 0,00 %
08.09.2015 20:52 10,2 C 67 % 1022,0 hPa 0,0 l/m 0,0 km/h (0 Bft) NO 54 0 min 0,000 mm 0,0 UV-I 0 W/m 4,4 C 10,2 C 0,0 km/h (0 Bft) 0,00 %
08.09.2015 20:57 10,2 C 68 % 1022,1 hPa 0,0 l/m 0,0 km/h (0 Bft) O-NO 60 0 min 0,000 mm 0,0 UV-I 0 W/m 4,6 C 10,2 C 0,0 km/h (0 Bft) 0,00 %
08.09.2015 21:02 10,1 C 69 % 1022,2 hPa 0,0 l/m 0,0 km/h (0 Bft) NO 50 0 min 0,000 mm 0,0 UV-I 0 W/m 4,7 C 10,1 C 0,0 km/h (0 Bft) 0,00 %
08.09.2015 21:07 10,0 C 69 % 1022,3 hPa 0,0 l/m 0,0 km/h (0 Bft) O-NO 76 0 min 0,000 mm 0,0 UV-I 0 W/m 4,6 C 10,0 C 0,0 km/h (0 Bft) 0,00 %
08.09.2015 21:12 10,0 C 68 % 1022,3 hPa 0,0 l/m 0,0 km/h (0 Bft) NO 50 0 min 0,000 mm 0,0 UV-I 0 W/m 4,4 C 10,0 C 0,0 km/h (0 Bft) 0,00 %
08.09.2015 21:17 9,9 C 70 % 1022,2 hPa 0,0 l/m 0,0 km/h (0 Bft) O-NO 60 0 min 0,000 mm 0,0 UV-I 0 W/m 4,7 C 9,9 C 0,0 km/h (0 Bft) 0,00 %
08.09.2015 21:22 9,9 C 70 % 1022,2 hPa 0,0 l/m 0,0 km/h (0 Bft) NO 54 0 min 0,000 mm 0,0 UV-I 0 W/m 4,7 C 9,9 C 0,0 km/h (0 Bft) 0,00 %
08.09.2015 21:27 9,8 C 71 % 1022,3 hPa 0,0 l/m 0,0 km/h (0 Bft) O-NO 61 0 min 0,000 mm 0,0 UV-I 0 W/m 4,8 C 9,8 C 0,0 km/h (0 Bft) 0,00 %
08.09.2015 21:32 9,7 C 71 % 1022,3 hPa 0,0 l/m 0,0 km/h (0 Bft) O-NO 63 0 min 0,000 mm 0,0 UV-I 0 W/m 4,7 C 9,7 C 0,0 km/h (0 Bft) 0,00 %
08.09.2015 21:37 9,6 C 71 % 1022,3 hPa 0,0 l/m 0,0 km/h (0 Bft) O-NO 70 0 min 0,000 mm 0,0 UV-I 0 W/m 4,6 C 9,6 C 0,0 km/h (0 Bft) 0,00 %
08.09.2015 21:42 9,5 C 72 % 1022,3 hPa 0,0 l/m 0,0 km/h (0 Bft) O-NO 60 0 min 0,000 mm 0,0 UV-I 0 W/m 4,7 C 9,5 C 0,0 km/h (0 Bft) 0,00 %
08.09.2015 21:47 9,4 C 73 % 1022,1 hPa 0,0 l/m 0,0 km/h (0 Bft) O-NO 64 0 min 0,000 mm 0,0 UV-I 0 W/m 4,8 C 9,4 C 0,0 km/h (0 Bft) 0,00 %
08.09.2015 21:52 9,4 C 73 % 1022,4 hPa 0,0 l/m 0,0 km/h (0 Bft) O-NO 58 0 min 0,000 mm 0,0 UV-I 0 W/m 4,8 C 9,4 C 0,0 km/h (0 Bft) 0,00 %
08.09.2015 21:57 9,4 C 73 % 1022,3 hPa 0,0 l/m 0,0 km/h (0 Bft) O-NO 72 0 min 0,000 mm 0,0 UV-I 0 W/m 4,8 C 9,4 C 0,0 km/h (0 Bft) 0,00 %
08.09.2015 22:02 9,4 C 72 % 1022,6 hPa 0,0 l/m 0,0 km/h (0 Bft) NO 53 0 min 0,000 mm 0,0 UV-I 0 W/m 4,6 C 9,4 C 0,0 km/h (0 Bft) 0,00 %
08.09.2015 22:07 9,4 C 74 % 1022,4 hPa 0,0 l/m 0,0 km/h (0 Bft) NO 39 0 min 0,000 mm 0,0 UV-I 0 W/m 5,0 C 9,4 C 0,0 km/h (0 Bft) 0,00 %
08.09.2015 22:12 9,4 C 76 % 1022,5 hPa 0,0 l/m 0,0 km/h (0 Bft) NO 40 0 min 0,000 mm 0,0 UV-I 0 W/m 5,4 C 9,4 C 0,0 km/h (0 Bft) 0,00 %
08.09.2015 22:17 9,3 C 77 % 1022,4 hPa 0,0 l/m 0,0 km/h (0 Bft) NO 48 0 min 0,000 mm 0,0 UV-I 0 W/m 5,5 C 9,3 C 0,0 km/h (0 Bft) 0,00 %
08.09.2015 22:22 9,2 C 79 % 1022,4 hPa 0,0 l/m 0,0 km/h (0 Bft) NO 48 0 min 0,000 mm 0,0 UV-I 0 W/m 5,8 C 9,2 C 0,0 km/h (0 Bft) 0,00 %
08.09.2015 22:27 9,0 C 81 % 1022,5 hPa 0,0 l/m 0,0 km/h (0 Bft) NO 40 0 min 0,000 mm 0,0 UV-I 0 W/m 5,9 C 9,0 C 0,0 km/h (0 Bft) 0,00 %
08.09.2015 22:32 8,7 C 82 % 1022,7 hPa 0,0 l/m 0,0 km/h (0 Bft) NO 44 0 min 0,000 mm 0,0 UV-I 0 W/m 5,8 C 8,7 C 0,0 km/h (0 Bft) 0,00 %
08.09.2015 22:37 8,5 C 84 % 1022,6 hPa 0,0 l/m 0,0 km/h (0 Bft) NO 36 0 min 0,000 mm 0,0 UV-I 0 W/m 6,0 C 8,5 C 0,0 km/h (0 Bft) 0,00 %
08.09.2015 22:42 8,4 C 85 % 1022,7 hPa 0,0 l/m 0,0 km/h (0 Bft) NO 43 0 min 0,000 mm 0,0 UV-I 0 W/m 6,0 C 8,4 C 0,0 km/h (0 Bft) 0,00 %
08.09.2015 22:47 8,2 C 86 % 1022,7 hPa 0,0 l/m 0,0 km/h (0 Bft) NO 48 0 min 0,000 mm 0,0 UV-I 0 W/m 6,0 C 8,2 C 0,0 km/h (0 Bft) 0,00 %
08.09.2015 22:52 8,2 C 87 % 1022,6 hPa 0,0 l/m 0,0 km/h (0 Bft) O-NO 62 0 min 0,000 mm 0,0 UV-I 0 W/m 6,2 C 8,2 C 0,0 km/h (0 Bft) 0,00 %
08.09.2015 22:57 8,2 C 88 % 1022,9 hPa 0,0 l/m 0,0 km/h (0 Bft) NO 46 0 min 0,000 mm 0,0 UV-I 0 W/m 6,3 C 8,2 C 0,0 km/h (0 Bft) 0,00 %
08.09.2015 23:02 8,2 C 88 % 1022,7 hPa 0,0 l/m 0,0 km/h (0 Bft) NO 46 0 min 0,000 mm 0,0 UV-I 0 W/m 6,3 C 8,2 C 0,0 km/h (0 Bft) 0,00 %
08.09.2015 23:07 8,2 C 88 % 1022,7 hPa 0,0 l/m 0,0 km/h (0 Bft) N-NO 33 0 min 0,000 mm 0,0 UV-I 0 W/m 6,3 C 8,2 C 0,0 km/h (0 Bft) 0,00 %
08.09.2015 23:12 8,0 C 89 % 1022,7 hPa 0,0 l/m 0,0 km/h (0 Bft) NO 40 0 min 0,000 mm 0,0 UV-I 0 W/m 6,3 C 8,0 C 0,0 km/h (0 Bft) 0,00 %
08.09.2015 23:17 8,0 C 90 % 1022,8 hPa 0,0 l/m 0,0 km/h (0 Bft) NO 45 0 min 0,000 mm 0,0 UV-I 0 W/m 6,5 C 8,0 C 0,0 km/h (0 Bft) 0,00 %
08.09.2015 23:22 8,0 C 90 % 1022,8 hPa 0,0 l/m 0,0 km/h (0 Bft) NO 46 0 min 0,000 mm 0,0 UV-I 0 W/m 6,5 C 8,0 C 0,0 km/h (0 Bft) 0,00 %
08.09.2015 23:27 7,9 C 91 % 1022,7 hPa 0,0 l/m 0,0 km/h (0 Bft) NO 44 0 min 0,000 mm 0,0 UV-I 0 W/m 6,5 C 7,9 C 0,0 km/h (0 Bft) 0,00 %
08.09.2015 23:32 7,9 C 91 % 1022,7 hPa 0,0 l/m 0,0 km/h (0 Bft) O-NO 59 0 min 0,000 mm 0,0 UV-I 0 W/m 6,5 C 7,9 C 0,0 km/h (0 Bft) 0,00 %
08.09.2015 23:37 7,9 C 91 % 1022,7 hPa 0,0 l/m 0,0 km/h (0 Bft) NO 46 0 min 0,000 mm 0,0 UV-I 0 W/m 6,5 C 7,9 C 0,0 km/h (0 Bft) 0,00 %
08.09.2015 23:42 7,9 C 92 % 1022,8 hPa 0,0 l/m 0,0 km/h (0 Bft) NO 44 0 min 0,000 mm 0,0 UV-I 0 W/m 6,7 C 7,9 C 0,0 km/h (0 Bft) 0,00 %
08.09.2015 23:47 7,8 C 93 % 1022,6 hPa 0,0 l/m 0,0 km/h (0 Bft) NO 44 0 min 0,000 mm 0,0 UV-I 0 W/m 6,7 C 7,8 C 0,0 km/h (0 Bft) 0,00 %
08.09.2015 23:52 7,8 C 93 % 1022,8 hPa 0,0 l/m 0,0 km/h (0 Bft) NO 51 0 min 0,000 mm 0,0 UV-I 0 W/m 6,7 C 7,8 C 0,0 km/h (0 Bft) 0,00 %
08.09.2015 23:57 7,7 C 93 % 1022,5 hPa 0,0 l/m 0,0 km/h (0 Bft) NO 50 0 min 0,000 mm 0,0 UV-I 0 W/m 6,6 C 7,7 C 0,0 km/h (0 Bft) 0,00 %
_ Min-Zeit 23:57 14:32 17:12 - 00:06 - - - - - - 18:42 23:57 00:06 00:01
Minimum _ 7,7 C 36 % 1021,2 hPa - 0,0 km/h (0 Bft) - - - - - - 2,9 C 7,7 C 0,0 km/h (0 Bft) 0,00 %
_ Max-Zeit 14:37 01:16 00:01 00:06 11:52 - - 08:27 00:01 11:37 13:22 08:42 14:37 11:52 00:01
Maximum _ 18,7 C 99 % 1025,5 hPa 0,6 l/m 9,0 km/h
W-SW (2 Bft)
- - 5 min 0,000 mm 3,0 UV-I 844 W/m 10,8 C 18,7 C 11,9 km/h
W-SW (2 Bft)
0,00 %
Durchschnitt _ 12,8 C 74 % 1023,4 hPa #2,4 l/m 0,5 km/h (0 Bft) W-SW - #9:05 h #0,000 mm 1,7 UV-I 453 W/m 7,3 C 12,7 C 1,2 km/h (1 Bft) 0,00 %